This is the latest recevied weather packets stored in our database for station/object KW4UJ. If no packets are shown the sender has not sent any weather packets the latest 10 day(s).
| Time | Temp. | Humidity | Pressure | Rain* | Wind** | Luminosity | Snow |
|---|---|---|---|---|---|---|---|
| 1777726223 | 8.89° C | 64% | 1014.5 hPa | 0 mm | - | 130 W/m² | - |
| 1777725920 | 8.89° C | 65% | 1014.3 hPa | 0 mm | - | 123 W/m² | - |
| 1777725617 | 8.89° C | 64% | 1014.3 hPa | 0 mm | - | 120 W/m² | - |
| 1777725315 | 8.89° C | 66% | 1014.4 hPa | 0 mm | - | 131 W/m² | - |
| 1777725011 | 8.89° C | 65% | 1014.2 hPa | 0 mm | - | 116 W/m² | - |
| 1777724708 | 9.44° C | 64% | 1014.4 hPa | 0 mm | - | 110 W/m² | - |
| 1777724406 | 8.89° C | 64% | 1014.5 hPa | 0 mm | - | 117 W/m² | - |
| 1777724103 | 9.44° C | 64% | 1014.3 hPa | 0 mm | - | 121 W/m² | - |
| 1777723800 | 8.89° C | 65% | 1014.4 hPa | 0 mm | - | 138 W/m² | - |
| 1777723496 | 8.89° C | 64% | 1014.4 hPa | 0 mm | - | 131 W/m² | - |
| 1777723193 | 8.89° C | 64% | 1014.4 hPa | 0 mm | - | 159 W/m² | - |
| 1777722891 | 8.33° C | 67% | 1014 hPa | 0 mm | - | 139 W/m² | - |
| 1777722587 | 8.33° C | 67% | 1014.5 hPa | 0 mm | - | 85 W/m² | - |
| 1777722284 | 8.33° C | 67% | 1014.2 hPa | 0 mm | - | 69 W/m² | - |
| 1777721981 | 8.33° C | 66% | 1014.3 hPa | 0 mm | - | 64 W/m² | - |
| 1777721678 | 8.33° C | 66% | 1014.3 hPa | 0 mm | - | 57 W/m² | - |
| 1777721377 | 8.33° C | 67% | 1014.3 hPa | 0 mm | - | 58 W/m² | - |
| 1777721074 | 8.33° C | 66% | 1014.2 hPa | 0 mm | - | 54 W/m² | - |
| 1777720771 | 8.33° C | 66% | 1014.4 hPa | 0 mm | - | 45 W/m² | - |
| 1777720468 | 8.33° C | 66% | 1014.3 hPa | 0 mm | - | 45 W/m² | - |
| 1777720166 | 8.33° C | 65% | 1014.2 hPa | 0 mm | - | 40 W/m² | - |
| 1777719863 | 8.33° C | 65% | 1014.3 hPa | 0 mm | - | 34 W/m² | - |
| 1777719560 | 8.89° C | 64% | 1014.2 hPa | 0 mm | - | 27 W/m² | - |
| 1777719257 | 8.89° C | 64% | 1013.9 hPa | 0 mm | - | 24 W/m² | - |
| 1777718956 | 8.89° C | 65% | 1013.9 hPa | 0 mm | - | 23 W/m² | - |
* Rain latest hour (hover to see other rain measurements)
** Current wind speed in m/s (hover to see current wind gust speed)